Bandar Abbas International Airport

Airport
ICAO code: 
OIKB
IATA Code: 
BND
Summary
ICAO Region: 
MID
Territory: 
Location: 
Bandar Abbas, Homozgan
Serving: 
Bandar Abbas
Elevation: 
22 ft
Coordinates: 
Aerial View: 
27° 12' 34.192" N, 56° 22' 7.562" E
Metar
Observation
OIKB 010800Z 14008KT 5000 HZ FEW030 36/27 Q0995 A2940 NOSIG
Station
Bandarabbass
Date/Time
2022-07-01 08:00:00
Wind direction
140°
Wind speed
08 kts
Lowest cloud amount
few clouds
Temperature
36°C
Dew point
27°C
Humidity
60%
QNH
995 hPa
Weather condition
n/a

International airport on eastern side of the city of Bandar Abbas, Iran.

Climatology

Warm desert climate (Köppen climate classification BWh).

Runways

Designator Length Width Surface Rops
03L/21R 3457 30 ASP Yes/Yes
03R/21L 3660 45 ASP Yes/Yes
Airport map: 
Aerial View: 

SKYbrary Partners:

Safety knowledge contributed by: